User: anonymous   Login
Location: Bangkok
(13.7500°N, 100.5170°E)
Time: 14:39:52
(UTC+07:00)
Language:

Cosmos 1898 Rocket - Orbit

View from above orbital plane
View from above orbital plane
View from above satellite
View from above satellite

Ground track
Ground track

The orbit data is extracted from the following two-line orbital elements,

1 18586U 87098B   14299.12876204  .00000383  00000-0  13931-3 0  1597
2 18586 074.0071 272.0896 0021283 200.5282 233.8648 14.36477790408776
Epoch (UTC): 26 October 2014 03:05:25
Eccentricity: 0.0021283
inclination: 74.0071°
perigee height: 755 km
apogee height: 785 km
right ascension of ascending node: 272.0896°
argument of perigee: 200.5282°
revolutions per day: 14.36477790
mean anomaly at epoch: 233.8648°
orbit number at epoch: 40877

The dashed part of the orbit path shows where the satellite is in the earth's shadow,  

DLR